Regional Weather Roundup
Issued by NWS Goodland, KS

Home | Current Version | Previous Version | Text Only | Print | Product List | Glossary On
Versions: 1 2 3 4 5 6 7 8 9 10 11 12 13 14 15 16 17 18 19 20 21 22 23 24 25 26 27 28 29 30 31 32 33 34 35 36 37 38 39 40 41 42 43 44 45 46 47 48 49 50
000
ASUS43 KGLD 260508
RWRGLD

GOODLAND FORECAST AREA HOURLY WEATHER ROUNDUP
NATIONAL WEATHER SERVICE GOODLAND KS
1100 PM MDT MON MAY 25 2015

...OFFICIAL OBSERVATIONS...

CITY           SKY/WX    TMP DP  RH WIND       PRES   REMARKS
GOODLAND KS    PTCLDY    51  47  86 W7        29.94R
HILL CITY KS   CLOUDY    61  51  70 NW9       29.85R
IMPERIAL NEB   CLOUDY    54  50  86 NW9       29.90F
MCCOOK NEB     CLEAR     56  52  86 NW10      29.86R
AKRON CO       MOCLDY    49  46  90 W7        29.99R
BURLINGTON CO  PTCLDY    51  46  83 NW8       29.97R
LIMON CO       LGT RAIN  51  46  83 NW7       30.02S
$$

...UNOFFICIAL OBSERVATIONS...

CITY           SKY/WX    TMP DP  RH WIND       PRES   REMARKS
COLBY KS       CLEAR     54  54 100 W8        29.92R
GOVE KS          N/A     59  32  36 MISG        N/A
LENORA KS        N/A     58  32  37 MISG        N/A
NORTON KS      CLEAR     55  46  71 W8        29.83F
SHARON SPRINGS   N/A     54  50  86 MISG        N/A
TRENTON NEB      N/A     55  32  41 NW12        N/A
KIT CARSON CO    N/A     51  47  87 MISG        N/A
$$



USA.gov is the U.S. government's official web portal to all federal, state and local government web resources and services.